{"data":{"norad_id":65630,"epoch":"2026-09-20T22:12:14.876352Z","epoch_age_seconds":75430,"freshness":"FRESH","line1":"1 65630U 25210J   26263.92517218  .00014493  00000+0  43909-3 0  9992","line2":"2 65630  53.1588 115.8990 0000998 101.8471 258.2644 15.34410200 57680","mean_motion":15.344102,"eccentricity":9.98e-5,"inclination_deg":53.1588,"raan_deg":115.899,"arg_perigee_deg":101.8471,"mean_anomaly_deg":258.2644,"bstar":0.00043909,"rev_number":5768,"period_min":93.847134227862,"perigee_km":461.9902109951,"apogee_km":463.35563665589,"semimajor_km":6840.8099238255,"source":"CELESTRAK","updated_at":"2026-09-21T09:00:35.674045Z"}}